H1 CPF 2 NER 2022 2 13 9 044 01 glonass140 H2 1903001 9140 44299 2022 2 13 0 0 0 2022 2 16 23 45 0 900 1 1 0 0 0 1 H9 10 0 59623 0.00000 0 -7080266.254 -13132492.186 20715549.411 10 0 59623 900.00000 0 -6663544.032 -15550453.482 19118876.569 10 0 59623 1800.00000 0 -6451345.094 -17774992.378 17151803.318 10 0 59623 2700.00000 0 -6417579.971 -19747340.643 14852424.079 10 0 59623 3600.00000 0 -6526251.370 -21416595.269 12265261.053 10 0 59623 4500.00000 0 -6733159.942 -22741675.016 9440410.979 10 0 59623 5400.00000 0 -6987964.985 -23692884.054 6432584.246 10 0 59623 6300.00000 0 -7236513.612 -24253018.031 3300053.960 10 0 59623 7200.00000 0 -7423340.517 -24417966.434 103534.611 10 0 59623 8100.00000 0 -7494233.092 -24196786.037 -3094988.650 10 0 59623 9000.00000 0 -7398753.540 -23611241.991 -6233457.830 10 0 59623 9900.00000 0 -7092611.193 -22694835.316 -9250943.912 10 0 59623 10800.00000 0 -6539784.113 -21491357.065 -12088829.394 10 0 59623 11700.00000 0 -5714299.331 -20053029.244 -14691948.465 10 0 59623 12600.00000 0 -4601595.181 -18438310.055 -17009662.352 10 0 59623 13500.00000 0 -3199406.553 -16709455.170 -18996848.647 10 0 59623 14400.00000 0 -1518133.758 -14929937.075 -20614785.077 10 0 59623 15300.00000 0 419322.601 -13161830.643 -21831910.054 10 0 59623 16200.00000 0 2578256.007 -11463274.508 -22624444.897 10 0 59623 17100.00000 0 4913350.657 -9886114.751 -22976865.141 10 0 59623 18000.00000 0 7370332.070 -8473829.802 -22882211.284 10 0 59623 18900.00000 0 9888004.239 -7259823.678 -22342232.412 10 0 59623 19800.00000 0 12400589.459 -6266159.180 -21367359.306 10 0 59623 20700.00000 0 14840273.808 -5502784.231 -19976507.007 10 0 59623 21600.00000 0 17139852.422 -4967283.605 -18196710.123 10 0 59623 22500.00000 0 19235364.143 -4645166.109 -16062597.544 10 0 59623 23400.00000 0 21068605.116 -4510674.499 -13615716.533 10 0 59623 24300.00000 0 22589415.894 -4528083.087 -10903719.351 10 0 59623 25200.00000 0 23757645.923 -4653427.142 -7979428.448 10 0 59623 26100.00000 0 24544712.784 -4836589.673 -4899799.047 10 0 59623 27000.00000 0 24934690.815 -5023655.835 -1724800.110 10 0 59623 27900.00000 0 24924883.726 -5159433.755 1483763.559 10 0 59623 28800.00000 0 24525857.804 -5190033.522 4663463.888 10 0 59623 29700.00000 0 23760935.379 -5065393.763 7752472.134 10 0 59623 30600.00000 0 22665171.090 -4741647.660 10690766.734 10 0 59623 31500.00000 0 21283855.448 -4183227.499 13421302.102 10 0 59623 32400.00000 0 19670609.941 -3364618.191 15891115.323 10 0 59623 33300.00000 0 17885154.897 -2271685.487 18052349.301 10 0 59623 34200.00000 0 15990844.614 -902522.846 19863172.872 10 0 59623 35100.00000 0 14052073.476 732218.644 21288580.929 10 0 59623 36000.00000 0 12131661.478 2609531.148 22301060.164 10 0 59623 36900.00000 0 10288327.898 4694773.415 22881108.820 10 0 59623 37800.00000 0 8574357.469 6942886.662 23017601.745 10 0 59623 38700.00000 0 7033554.951 9300052.877 22707994.911 10 0 59623 39600.00000 0 5699571.723 11705727.253 21958366.438 10 0 59623 40500.00000 0 4594672.340 14094961.312 20783293.993 10 0 59623 41400.00000 0 3728990.711 16400921.446 19205571.213 10 0 59623 42300.00000 0 3100305.435 18557499.495 17255768.540 10 0 59623 43200.00000 0 2694342.356 20501908.269 14971646.502 10 0 59623 44100.00000 0 2485590.743 22177155.294 12397431.996 10 0 59623 45000.00000 0 2438598.328 23534292.824 9582970.738 10 0 59623 45900.00000 0 2509690.562 24534351.126 6582771.237 10 0 59623 46800.00000 0 2649041.784 25149874.817 3454957.842 10 0 59623 47700.00000 0 2803011.190 25365998.122 260152.362 10 0 59623 48600.00000 0 2916645.250 25181013.914 -2939694.722 10 0 59623 49500.00000 0 2936240.948 24606412.218 -6082501.276 10 0 59623 50400.00000 0 2811861.432 23666385.888 -9107255.667 10 0 59623 51300.00000 0 2499697.297 22396823.433 -11955200.775 10 0 59623 52200.00000 0 1964172.927 20843830.374 -14570976.791 10 0 59623 53100.00000 0 1179707.817 19061840.397 -16903700.239 10 0 59623 54000.00000 0 132057.035 17111394.804 -18907958.023 10 0 59623 54900.00000 0 -1180827.481 15056682.736 -20544696.810 10 0 59623 55800.00000 0 -2748452.984 12962944.879 -21781990.007 10 0 59623 56700.00000 0 -4547975.919 10893849.051 -22595667.061 10 0 59623 57600.00000 0 -6544919.989 8908947.402 -22969792.391 10 0 59623 58500.00000 0 -8694394.048 7061321.601 -22896984.118 10 0 59623 59400.00000 0 -10942760.551 5395514.521 -22378565.914 10 0 59623 60300.00000 0 -13229686.124 3945834.950 -21424548.409 10 0 59623 61200.00000 0 -15490489.382 2735106.229 -20053439.977 10 0 59623 62100.00000 0 -17658688.383 1773910.993 -18291890.051 10 0 59623 63000.00000 0 -19668641.361 1060363.208 -16174171.433 10 0 59623 63900.00000 0 -21458169.939 580416.432 -13741511.462 10 0 59623 64800.00000 0 -22971054.627 308694.312 -11041285.007 10 0 59623 65700.00000 0 -24159297.463 209807.097 -8126085.183 10 0 59623 66600.00000 0 -24985056.335 240097.176 -5052690.503 10 0 59623 67500.00000 0 -25422169.453 349738.235 -1880949.318 10 0 59623 68400.00000 0 -25457205.824 485097.547 1327395.727 10 0 59623 69300.00000 0 -25089997.803 591259.731 4509919.141 10 0 59623 70200.00000 0 -24333633.952 614603.536 7604735.244 10 0 59623 71100.00000 0 -23213913.373 505321.210 10551707.297 10 0 59623 72000.00000 0 -21768285.607 219772.816 13293618.733 10 0 59623 72900.00000 0 -20044321.807 -277424.804 15777283.374 10 0 59623 73800.00000 0 -18097782.447 -1011663.025 17954573.103 10 0 59623 74700.00000 0 -15990363.481 -1997033.665 19783343.409 10 0 59623 75600.00000 0 -13787215.796 -3235503.459 21228239.710 10 0 59623 76500.00000 0 -11554341.686 -4716605.363 22261369.953 10 0 59623 77400.00000 0 -9355976.625 -6417659.513 22862831.728 10 0 59623 78300.00000 0 -7252064.549 -8304514.731 23021085.043 10 0 59623 79200.00000 0 -5295930.438 -10332779.925 22733164.806 10 0 59623 80100.00000 0 -3532245.454 -12449494.560 22004729.866 10 0 59623 81000.00000 0 -1995367.451 -14595169.491 20849948.390 10 0 59623 81900.00000 0 -708124.019 -16706114.280 19291222.049 10 0 59623 82800.00000 0 318912.963 -18716955.291 17358754.286 10 0 59623 83700.00000 0 1087632.626 -20563241.028 15089970.566 10 0 59623 84600.00000 0 1612062.970 -22184027.444 12528801.063 10 0 59623 85500.00000 0 1917535.650 -23524336.412 9724838.801 10 0 59624 0.00000 0 2039373.308 -24537385.529 6732388.809 10 0 59624 900.00000 0 2021154.917 -25186497.031 3609424.063 10 0 59624 1800.00000 0 1912632.017 -25446604.779 416471.743 10 0 59624 2700.00000 0 1767383.875 -25305297.796 -2784554.698 10 0 59624 3600.00000 0 1640310.213 -24763354.624 -5931551.465 10 0 59624 4500.00000 0 1585067.572 -23834745.852 -8963426.891 10 0 59624 5400.00000 0 1651557.863 -22546103.638 -11821286.916 10 0 59624 6300.00000 0 1883575.828 -20935679.342 -14449580.450 10 0 59624 7200.00000 0 2316715.604 -19051831.929 -16797182.045 10 0 59624 8100.00000 0 2976626.019 -16951109.486 -18818390.560 10 0 59624 9000.00000 0 3877689.685 -14696003.276 -20473824.090 10 0 59624 9900.00000 0 5022183.279 -12352467.698 -21731193.270 10 0 59624 10800.00000 0 6399956.222 -9987309.305 -22565937.601 10 0 59624 11700.00000 0 7988643.244 -7665553.630 -22961711.939 10 0 59624 12600.00000 0 9754403.739 -5447899.671 -22910713.208 10 0 59624 13500.00000 0 11653158.620 -3388368.202 -22413840.453 10 0 59624 14400.00000 0 13632274.292 -1532242.026 -21480684.564 10 0 59624 15300.00000 0 15632624.211 85615.817 -20129347.293 10 0 59624 16200.00000 0 17590942.357 1441995.835 -18386092.544 10 0 59624 17100.00000 0 19442370.310 2526076.659 -16284836.283 10 0 59624 18000.00000 0 21123090.983 3339630.210 -13866484.736 10 0 59624 18900.00000 0 22572938.162 3896689.846 -11178133.730 10 0 59624 19800.00000 0 23737871.719 4222696.683 -8272144.924 10 0 59624 20700.00000 0 24572213.797 4353161.495 -5205117.548 10 0 59624 21600.00000 0 25040551.399 4331900.427 -2036776.399 10 0 59624 22500.00000 0 25119224.911 4208920.836 1171201.279 10 0 59624 23400.00000 0 24797339.790 4038048.500 4356395.983 10 0 59624 24300.00000 0 24077259.026 3874398.375 7456868.565 10 0 59624 25200.00000 0 22974556.166 3771797.443 10412370.509 10 0 59624 26100.00000 0 21517431.614 3780269.952 13165517.510 10 0 59624 27000.00000 0 19745617.671 3943692.261 15662903.136 10 0 59624 27900.00000 0 17708819.146 4297716.884 17856130.986 10 0 59624 28800.00000 0 15464755.704 4868053.484 19702745.627 10 0 59624 29700.00000 0 13076888.400 5669179.135 21167045.093 10 0 59624 30600.00000 0 10611925.421 6703531.886 22220760.329 10 0 59624 31500.00000 0 8137210.882 7961221.156 22843589.622 10 0 59624 32400.00000 0 5718104.545 9420266.959 23023579.086 10 0 59624 33300.00000 0 3415460.304 11047357.962 22757343.051 10 0 59624 34200.00000 0 1283306.693 12799096.957 22050121.114 10 0 59624 35100.00000 0 -633175.994 14623682.321 20915671.465 10 0 59624 36000.00000 0 -2299299.873 16462956.202 19376002.847 10 0 59624 36900.00000 0 -3692068.357 18254734.982 17460950.295 10 0 59624 37800.00000 0 -4800881.642 19935326.006 15207602.402 10 0 59624 38700.00000 0 -5627720.886 21442126.732 12659590.468 10 0 59624 39600.00000 0 -6186804.517 22716198.775 9866252.403 10 0 59624 40500.00000 0 -6503731.929 23704710.079 6881686.559 10 0 59624 41400.00000 0 -6614151.009 24363143.592 3763712.820 10 0 59624 42300.00000 0 -6562005.699 24657180.045 572760.286 10 0 59624 43200.00000 0 -6397437.442 24564175.706 -2629297.596 10 0 59624 44100.00000 0 -6174428.972 24074172.525 -5780338.344 10 0 59624 45000.00000 0 -5948289.861 23190397.363 -8819193.162 10 0 59624 45900.00000 0 -5773090.147 21929228.195 -11686833.811 10 0 59624 46800.00000 0 -5699150.810 20319627.387 -14327520.488 10 0 59624 47700.00000 0 -5770697.674 18402064.465 -16689888.092 10 0 59624 48600.00000 0 -6023778.679 16226972.183 -18727949.497 10 0 59624 49500.00000 0 -6484533.603 13852799.281 -20401996.005 10 0 59624 50400.00000 0 -7167890.546 11343740.401 -21679376.989 10 0 59624 51300.00000 0 -8076745.693 8767237.168 -22535143.226 10 0 59624 52200.00000 0 -9201662.580 6191354.117 -22952540.942 10 0 59624 53100.00000 0 -10521105.148 3682138.647 -22923346.456 10 0 59624 54000.00000 0 -12002196.423 1301074.775 -22448034.420 10 0 59624 54900.00000 0 -13601972.362 -897263.247 -21535775.808 10 0 59624 55800.00000 0 -15269079.293 -2867259.650 -20204265.137 10 0 59624 56700.00000 0 -16945844.485 -4573922.894 -18479379.746 10 0 59624 57600.00000 0 -18570633.287 -5994099.171 -16394677.322 10 0 59624 58500.00000 0 -20080393.788 -7117183.386 -13990741.185 10 0 59624 59400.00000 0 -21413281.718 -7945298.668 -11314386.031 10 0 59624 60300.00000 0 -22511254.627 -8492937.998 -8417739.770 10 0 59624 61200.00000 0 -23322525.344 -8786084.415 -5357219.893 10 0 59624 62100.00000 0 -23803770.701 -8860848.548 -2192425.067 10 0 59624 63000.00000 0 -23922001.764 -8761682.827 1015035.531 10 0 59624 63900.00000 0 -23656016.315 -8539249.676 4202751.113 10 0 59624 64800.00000 0 -22997372.208 -8248035.730 7308731.831 10 0 59624 65700.00000 0 -21950840.729 -7943814.666 10272620.183 10 0 59624 66600.00000 0 -20534321.260 -7681067.353 13036866.861 10 0 59624 67500.00000 0 -18778221.481 -7510469.463 15547847.811 10 0 59624 68400.00000 0 -16724329.735 -7476553.303 17756900.778 10 0 59624 69300.00000 0 -14424227.530 -7615642.778 19621261.566 10 0 59624 70200.00000 0 -11937309.030 -7954148.388 21104882.646 10 0 59624 71100.00000 0 -9328490.345 -8507293.677 22179119.379 10 0 59624 72000.00000 0 -6665703.976 -9278326.119 22823271.760 10 0 59624 72900.00000 0 -4017281.998 -10258245.096 23024972.607 10 0 59624 73800.00000 0 -1449335.653 -11426058.032 22780415.885 10 0 59624 74700.00000 0 976761.173 -12749553.822 22094421.805 10 0 59624 75600.00000 0 3206681.908 -14186561.436 20980338.134 10 0 59624 76500.00000 0 5195156.656 -15686641.590 19459779.968 10 0 59624 77400.00000 0 6907599.372 -17193141.543 17562212.944 10 0 59624 78300.00000 0 8321287.024 -18645528.113 15324387.540 10 0 59624 79200.00000 0 9426043.282 -19981902.453 12789634.672 10 0 59624 80100.00000 0 10224399.506 -21141592.325 10007035.360 10 0 59624 81000.00000 0 10731227.328 -22067714.242 7030479.535 10 0 59624 81900.00000 0 10972858.953 -22709598.678 3917631.202 10 0 59624 82800.00000 0 10985732.407 -23024976.849 728819.215 10 0 59624 83700.00000 0 10814618.899 -22981837.163 -2474125.540 10 0 59624 84600.00000 0 10510506.932 -22559872.786 -5629064.526 10 0 59624 85500.00000 0 10128232.332 -21751458.614 -8674754.489 10 0 59625 0.00000 0 9723954.242 -20562115.484 -11552035.427 10 0 59625 900.00000 0 9352583.578 -19010439.944 -14204981.969 10 0 59625 1800.00000 0 9065273.394 -17127502.642 -16581991.627 10 0 59625 2700.00000 0 8907076.973 -14955736.785 -18636793.682 10 0 59625 3600.00000 0 8914873.820 -12547363.190 -20329354.831 10 0 59625 4500.00000 0 9115651.841 -9962415.851 -21626665.100 10 0 59625 5400.00000 0 9525219.387 -7266449.457 -22503388.133 10 0 59625 6300.00000 0 10147402.751 -4528023.522 -22942362.750 10 0 59625 7200.00000 0 10973764.287 -1816067.488 -22934945.517 10 0 59625 8100.00000 0 11983854.364 802763.914 -22481187.165 10 0 59625 9000.00000 0 13145987.818 3266635.121 -21589838.867 10 0 59625 9900.00000 0 14418513.233 5520868.068 -20278187.682 10 0 59625 10800.00000 0 15751522.412 7519977.075 -18571723.827 10 0 59625 11700.00000 0 17088928.564 9229315.574 -16503645.812 10 0 59625 12600.00000 0 18370825.717 10626266.175 -14114212.806 10 0 59625 13500.00000 0 19536029.754 11700924.920 -11449956.771 10 0 59625 14400.00000 0 20524693.400 12456251.937 -8562769.884 10 0 59625 15300.00000 0 21280884.132 12907683.374 -5508885.568 10 0 59625 16200.00000 0 21755015.383 13082222.477 -2347773.720 10 0 59625 17100.00000 0 21906027.627 13017049.889 859027.413 10 0 59625 18000.00000 0 21703226.594 12757713.670 4049118.788 10 0 59625 18900.00000 0 21127700.584 12355977.434 7160462.927 10 0 59625 19800.00000 0 20173256.884 11867419.331 10132596.370 10 0 59625 20700.00000 0 18846837.929 11348884.897 12907807.728 10 0 59625 21600.00000 0 17168399.961 10855902.639 15432258.066 10 0 59625 22500.00000 0 15170259.678 10440172.243 17657021.825 10 0 59625 23400.00000 0 12895936.757 10147231.757 19539028.354 10 0 59625 24300.00000 0 10398541.030 10014401.917 21041886.619 10 0 59625 25200.00000 0 7738771.753 10069093.762 22136578.170 10 0 59625 26100.00000 0 4982612.252 10327549.943 22802006.170 10 0 59625 27000.00000 0 2198815.323 10794071.842 23025391.226 10 0 59625 27900.00000 0 -543717.155 11460764.168 22802507.618 10 0 59625 28800.00000 0 -3178552.811 12307807.200 22137756.388 10 0 59625 29700.00000 0 -5644238.583 13304244.986 21044074.614 10 0 59625 30600.00000 0 -7886599.460 14409256.611 19542682.973 10 0 59625 31500.00000 0 -9860732.509 15573857.658 17662676.459 10 0 59625 32400.00000 0 -11532615.249 16742961.348 15440465.752 10 0 59625 33300.00000 0 -12880263.129 17857713.857 12919079.340 10 0 59625 34200.00000 0 -13894389.219 18858006.847 10147339.026 10 0 59625 35100.00000 0 -14578539.737 19685062.695 7178923.773 10 0 59625 36000.00000 0 -14948700.512 20283984.521 4071339.015 10 0 59625 36900.00000 0 -15032391.304 20606164.268 884810.572 10 0 59625 37800.00000 0 -14867286.257 20611447.558 -2318876.081 10 0 59625 38700.00000 0 -14499418.512 20269963.841 -5477569.228 10 0 59625 39600.00000 0 -13981044.491 19563544.022 -8529954.008 10 0 59625 40500.00000 0 -13368257.811 18486664.726 -11416741.933 10 0 59625 41400.00000 0 -12718453.445 17046877.948 -14081823.661 10 0 59625 42300.00000 0 -12087749.228 15264706.374 -16473362.297 10 0 59625 43200.00000 0 -11528473.807 13173006.894 -18544805.731 10 0 59625 44100.00000 0 -11086827.472 10815827.124 -20255797.965 10 0 59625 45000.00000 0 -10800815.202 8246801.156 -21572971.288 10 0 59625 45900.00000 0 -10698539.865 5527149.991 -22470603.498 10 0 59625 46800.00000 0 -10796928.481 2723368.850 -22931126.953 10 0 59625 47700.00000 0 -11100946.217 -95303.114 -22945479.048 10 0 59625 48600.00000 0 -11603332.224 -2859526.010 -22513286.797 10 0 59625 49500.00000 0 -12284869.449 -5502505.677 -21642881.371 10 0 59625 50400.00000 0 -13115177.831 -7962533.347 -20351141.743 10 0 59625 51300.00000 0 -14053998.101 -10185312.853 -18663169.978 10 0 59625 52200.00000 0 -15052912.415 -12125978.451 -16611803.996 10 0 59625 53100.00000 0 -16057429.314 -13750719.109 -14236977.068 10 0 59625 54000.00000 0 -17009344.744 -15037941.793 -11584936.404 10 0 59625 54900.00000 0 -17849278.937 -15978925.648 -8707336.226 10 0 59625 55800.00000 0 -18519281.181 -16577940.536 -5660223.527 10 0 59625 56700.00000 0 -18965391.486 -16851826.250 -2502936.966 10 0 59625 57600.00000 0 -19140049.924 -16829051.677 703058.699 10 0 59625 58500.00000 0 -19004250.904 -16548295.306 3895378.769 10 0 59625 59400.00000 0 -18529350.666 -16056608.860 7011940.804 10 0 59625 60300.00000 0 -17698451.157 -15407243.433 9992178.063 10 0 59625 61200.00000 0 -16507301.712 -14657231.547 12778219.741 10 0 59625 62100.00000 0 -14964680.570 -13864828.610 15316014.604 10 0 59625 63000.00000 0 -13092240.293 -13086922.675 17556376.211 10 0 59625 63900.00000 0 -10923823.930 -12376522.173 19455929.648 10 0 59625 64800.00000 0 -8504280.688 -11780427.460 20977942.260 10 0 59625 65700.00000 0 -5887830.705 -11337183.672 22093023.316 10 0 59625 66600.00000 0 -3136046.955 -11075400.150 22779680.290 10 0 59625 67500.00000 0 -315537.779 -11012505.962 23024722.338 10 0 59625 68400.00000 0 2504574.517 -11153992.685 22823504.442 10 0 59625 69300.00000 0 5255275.464 -11493175.177 22180008.517 10 0 59625 70200.00000 0 7870273.369 -12011479.622 21106760.675 10 0 59625 71100.00000 0 10288500.669 -12679246.339 19624586.612 10 0 59625 72000.00000 0 12456399.627 -13457013.627 17762209.828 10 0 59625 72900.00000 0 14329899.251 -14297229.088 15555700.070 10 0 59625 73800.00000 0 15876002.959 -15146317.204 13047781.949 10 0 59625 74700.00000 0 17073922.161 -15947017.081 10287016.281 10 0 59625 75600.00000 0 17915709.724 -16640892.934 7326868.968 10 0 59625 76500.00000 0 18406367.605 -17170912.422 4224684.462 10 0 59625 77400.00000 0 18563424.614 -17483984.817 1040582.878 10 0 59625 78300.00000 0 18416002.275 -17533352.262 -2163698.584 10 0 59625 79200.00000 0 18003407.994 -17280733.144 -5325997.995 10 0 59625 80100.00000 0 17373314.556 -16698126.618 -8384931.866 10 0 59625 81000.00000 0 16579602.416 -15769201.182 -11281085.887 10 0 59625 81900.00000 0 15679955.496 -14490207.359 -13958170.050 10 0 59625 82800.00000 0 14733311.740 -12870374.392 -16364115.400 10 0 59625 83700.00000 0 13797275.922 -10931772.301 -18452090.807 10 0 59625 84600.00000 0 12925603.955 -8708643.066 -20181419.701 10 0 59625 85500.00000 0 12165865.066 -6246227.001 -21518378.430 10 0 59626 0.00000 0 11557380.871 -3599131.822 -22436860.322 10 0 59626 900.00000 0 11129528.446 -829309.424 -22918892.498 10 0 59626 1800.00000 0 10900480.323 1996272.846 -22954993.740 10 0 59626 2700.00000 0 10876434.046 4808175.125 -22544367.600 10 0 59626 3600.00000 0 11051365.244 7537133.391 -21694925.120 10 0 59626 4500.00000 0 11407314.797 10116704.634 -20423136.712 10 0 59626 5400.00000 0 11915198.434 12485798.587 -18753715.464 10 0 59626 6300.00000 0 12536104.784 14590990.553 -16719137.561 10 0 59626 7200.00000 0 13223026.997 16388518.708 -14359008.906 10 0 59626 8100.00000 0 13922954.451 17845882.620 -11719290.177 10 0 59626 9000.00000 0 14579235.491 18942976.394 -8851395.546 10 0 59626 9900.00000 0 15134110.461 19672709.499 -5811183.187 10 0 59626 10800.00000 0 15531306.809 20041090.190 -2657857.885 10 0 59626 11700.00000 0 15718585.398 20066769.286 547191.904 10 0 59626 12600.00000 0 15650129.208 19780065.005 3741598.761 10 0 59626 13500.00000 0 15288672.471 19221511.725 6863238.217 10 0 59626 14400.00000 0 14607279.512 18439995.636 9851443.135 10 0 59626 15300.00000 0 13590697.693 17490557.601 12648186.032 10 0 59626 16200.00000 0 12236227.192 16431957.387 15199205.954 10 0 59626 17100.00000 0 10554070.888 15324102.984 17455057.932 10 0 59626 18000.00000 0 8567149.813 14225453.993 19372064.925 10 0 59626 18900.00000 0 6310391.942 13190508.447 20913154.548 10 0 59626 19800.00000 0 3829524.055 12267478.346 22048565.415 10 0 59626 20700.00000 0 1179417.003 11496250.723 22756410.629 10 0 59626 21600.00000 0 -1577947.213 10906718.655 23023088.877 10 0 59626 22500.00000 0 -4375802.759 10517550.818 22843536.435 10 0 59626 23400.00000 0 -7145126.039 10335449.861 22221316.240 10 0 59626 24300.00000 0 -9817257.089 10354929.386 21168543.126 10 0 59626 25200.00000 0 -12326509.132 10558617.951 19705647.002 10 0 59626 26100.00000 0 -14612659.650 10918076.736 17860978.589 10 0 59626 27000.00000 0 -16623221.256 11395096.345 15670264.976 10 0 59626 27900.00000 0 -18315399.630 11943418.433 13175924.798 10 0 59626 28800.00000 0 -19657658.306 12510810.246 10426255.483 10 0 59626 29700.00000 0 -20630826.239 13041405.415 7474507.264 10 0 59626 30600.00000 0 -21228702.708 13478213.060 4377860.873 10 0 59626 31500.00000 0 -21458134.634 13765690.019 1196327.916 10 0 59626 32400.00000 0 -21338563.302 13852268.004 -2008405.519 10 0 59626 33300.00000 0 -20901059.395 13692729.039 -5174170.120 10 0 59626 34200.00000 0 -20186886.645 13250328.477 -8239516.577 10 0 59626 35100.00000 0 -19245654.175 12498575.195 -11144907.503 10 0 59626 36000.00000 0 -18133134.939 11422592.572 -13833874.853 10 0 59626 36900.00000 0 -16908841.812 10020001.315 -16254120.049 10 0 59626 37800.00000 0 -15633463.209 8301285.060 -18358535.145 10 0 59626 38700.00000 0 -14366266.100 6289621.252 -20106124.869 10 0 59626 39600.00000 0 -13162575.848 4020182.325 -21462811.141 10 0 59626 40500.00000 0 -12071439.092 1538934.367 -22402104.060 10 0 59626 41400.00000 0 -11133568.296 -1099018.430 -22905625.877 10 0 59626 42300.00000 0 -10379654.821 -3831475.910 -22963477.233 10 0 59626 43200.00000 0 -9829121.845 -6591486.807 -22574438.075 10 0 59626 44100.00000 0 -9489369.951 -9309899.498 -21745998.762 10 0 59626 45000.00000 0 -9355547.412 -11918012.834 -20494220.187 10 0 59626 45900.00000 0 -9410854.957 -14350216.843 -18843425.148 10 0 59626 46800.00000 0 -9627372.096 -16546513.260 -16825726.473 10 0 59626 47700.00000 0 -9967369.878 -18454810.500 -14480400.817 10 0 59626 48600.00000 0 -10385054.068 -20032897.141 -11853120.252 10 0 59626 49500.00000 0 -10828664.319 -21250011.375 -8995056.727 10 0 59626 50400.00000 0 -11242839.528 -22087940.851 -5961877.343 10 0 59626 51300.00000 0 -11571148.122 -22541607.354 -2812650.748 10 0 59626 52200.00000 0 -11758674.892 -22619112.621 391313.189 10 0 59626 53100.00000 0 -11754553.613 -22341244.547 3587666.604 10 0 59626 54000.00000 0 -11514337.122 -21740466.077 6714245.298 10 0 59626 54900.00000 0 -11002103.617 -20859430.973 9710284.038 10 0 59626 55800.00000 0 -10192209.487 -19749090.646 12517600.969 10 0 59626 56700.00000 0 -9070614.200 -18466473.296 15081727.666 10 0 59626 57600.00000 0 -7635721.203 -17072230.081 17352962.794 10 0 59626 58500.00000 0 -5898699.414 -15628052.357 19287329.180 10 0 59626 59400.00000 0 -3883271.800 -14194068.838 20847416.476 10 0 59626 60300.00000 0 -1624979.858 -12826331.720 22003094.133 10 0 59626 61200.00000 0 830045.412 -11574496.505 22732082.067 10 0 59626 62100.00000 0 3426755.164 -10479791.569 23020369.354 10 0 59626 63000.00000 0 6103228.121 -9573361.029 22862474.087 10 0 59626 63900.00000 0 8793005.596 -8875048.717 22261540.451 10 0 59626 64800.00000 0 11427620.398 -8392672.507 21229271.917 10 0 59626 65700.00000 0 13939216.130 -8121818.007 19785702.242 10 0 59626 66600.00000 0 16263149.633 -8046159.101 17958808.723 10 0 59626 67500.00000 0 18340470.131 -8138291.177 15783974.847 10 0 59626 68400.00000 0 20120173.555 -8361041.679 13303312.017 10 0 59626 69300.00000 0 21561139.462 -8669202.965 10564852.679 10 0 59626 70200.00000 0 22633670.949 -9011614.796 7621629.438 10 0 59626 71100.00000 0 23320573.976 -9333509.230 4530656.994 10 0 59626 72000.00000 0 23617731.380 -9579019.483 1351835.805 10 0 59626 72900.00000 0 23534147.641 -9693747.229 -1853202.046 10 0 59626 73800.00000 0 23091462.353 -9627280.047 -5022282.935 10 0 59626 74700.00000 0 22322952.430 -9335552.445 -8093894.843 10 0 59626 75600.00000 0 21272064.495 -8782950.111 -11008380.368 10 0 59626 76500.00000 0 19990538.588 -7944067.511 -13709096.355 10 0 59626 77400.00000 0 18536201.597 -6805043.260 -16143517.313 10 0 59626 78300.00000 0 16970522.760 -5364415.207 -18264260.929 10 0 59626 79200.00000 0 15356033.699 -3633457.227 -20030015.389 10 0 59626 80100.00000 0 13753721.271 -1635981.408 -21406350.026 10 0 59626 81000.00000 0 12220502.739 592388.217 -22366393.142 10 0 59626 81900.00000 0 10806889.340 3005442.115 -22891363.403 10 0 59626 82800.00000 0 9554936.565 5548062.345 -22970943.949 10 0 59626 83700.00000 0 8496567.364 8158281.798 -22603491.451 10 0 59626 84600.00000 0 7652338.806 10769640.857 -21796075.504 10 0 59626 85500.00000 0 7030704.132 13313743.816 -20564347.024 99